Weather - Helsinki Query any day in the database

Current weather  

Weather data for a selected day (2006-01-01 -2020-10-31)
Enter date:     <-     scroll days         ->
day curves
Low temperature°C +8.023:50
High temperature°C +11.012:50
Low wind chill°C 4.420:50
Average temperature°C +9.6 
High wind speed (10 min) m/s 11.009:20
Low pressurehPa 973.005:20
High pressurehPa 994.023:50
Low R.H% 7612:50
High R.H% 10008:50
Day weather data as a table
Date Time Temp
°C
Chill
°C
Pressure
hPA
Wind
m/s
Hum
%
Precip
mm
2013-10-29 23:50:00 8.0  6.1  994.0 3.0 93 -
2013-10-29 23:20:00 8.0  5.5  994.0 4.0 93 -
2013-10-29 22:50:00 8.0  4.7  993.0 6.0 93 -
2013-10-29 22:20:00 8.0  4.7  993.0 6.0 93 -
2013-10-29 20:50:00 8.0  4.4  993.0 7.0 93 -
2013-10-29 20:20:00 9.0  5.6  992.0 7.0 93 -
2013-10-29 19:50:00 9.0  6.0  992.0 6.0 93 -
2013-10-29 19:20:00 9.0  6.0  992.0 6.0 93 -
2013-10-29 18:50:00 9.0  6.0  992.0 6.0 93 -
2013-10-29 18:20:00 10.0  6.9  991.0 7.0 87 -
2013-10-29 17:50:00 9.0  6.0  991.0 6.0 93 -
2013-10-29 17:20:00 9.0  6.0  991.0 6.0 93 -
2013-10-29 16:50:00 9.0  6.0  991.0 6.0 93 -
2013-10-29 16:20:00 10.0  7.2  990.0 6.0 81 -
2013-10-29 15:50:00 10.0  7.2  990.0 6.0 81 -
2013-10-29 15:20:00 10.0  6.9  990.0 7.0 81 -
2013-10-29 14:50:00 10.0  6.7  989.0 8.0 81 -
2013-10-29 14:20:00 10.0  6.7  989.0 8.0 81 -
2013-10-29 13:50:00 10.0  6.7  988.0 8.0 81 -
2013-10-29 13:20:00 10.0  6.7  988.0 8.0 81 -
2013-10-29 12:50:00 11.0  8.0  987.0 8.0 76 -
2013-10-29 12:20:00 11.0  7.7  986.0 9.0 81 -
2013-10-29 11:50:00 10.0  6.7  985.0 8.0 87 -
2013-10-29 11:20:00 10.0  6.4  984.0 9.0 87 -
2013-10-29 10:50:00 10.0  6.7  983.0 8.0 87 -
2013-10-29 10:20:00 9.0  5.1  982.0 9.0 87 -
2013-10-29 09:50:00 9.0  4.9  980.0 10.0 93 -
2013-10-29 09:20:00 10.0  6.0  979.0 11.0 87 -
2013-10-29 08:50:00 10.0  7.2  977.0 6.0 100 -
2013-10-29 08:20:00 10.0  8.0  976.0 4.0 93 -
2013-10-29 07:50:00 10.0  7.6  975.0 5.0 93 -
2013-10-29 07:20:00 10.0  7.6  974.0 5.0 93 -
2013-10-29 06:50:00 10.0  7.2  974.0 6.0 93 -
2013-10-29 06:20:00 9.0  6.3  974.0 5.0 100 -
2013-10-29 05:50:00 9.0  5.6  974.0 7.0 100 -
2013-10-29 05:20:00 9.0  5.6  973.0 7.0 100 -
2013-10-29 04:50:00 9.0  5.6  973.0 7.0 100 -
2013-10-29 04:20:00 10.0  6.9  973.0 7.0 93 -
2013-10-29 03:50:00 10.0  6.4  973.0 9.0 93 -
2013-10-29 03:20:00 10.0  6.4  974.0 9.0 93 -
2013-10-29 02:50:00 10.0  6.4  974.0 9.0 93 -
2013-10-29 02:20:00 10.0  6.7  975.0 8.0 93 -
2013-10-29 01:50:00 10.0  7.2  975.0 6.0 93 -
2013-10-29 01:20:00 11.0  7.7  976.0 9.0 93 -
2013-10-29 00:50:00 10.0  6.7  977.0 8.0 100 -
2013-10-29 00:20:00 10.0  6.7  978.0 8.0 93 -
Unit conversions: